Regional Weather Roundup
Issued by NWS

Home | Current Version | Previous Version | Text Only | Print | Product List | Glossary Off
Versions: 1 2 3 4 5 6 7 8 9 10 11 12 13 14 15 16 17 18 19 20 21 22 23 24 25 26 27 28 29 30 31 32 33 34 35 36 37 38

000
ASUS45 KBOU 221607
RWRCO

WEATHER ROUNDUP FOR COLORADO
NATIONAL WEATHER SERVICE DENVER/BOULDER CO
1000 AM MDT WED OCT 22 2014

NOTE: "FAIR" INDICATES FEW OR NO CLOUDS BELOW 12000 FEET WITH NO
SIGNIFICANT WEATHER AND/OR OBSTRUCTIONS TO VISIBILITY.

COZ001>005-013-030-031-221700-
...NORTHWEST COLORADO...

CITY           SKY/WX    TMP DP  RH WIND       PRES   REMARKS
CRAIG          CLOUDY    45  40  82 NW3       30.21S
HAYDEN         PTSUNNY   46  37  71 E3        30.21R
MEEKER         SUNNY     47  41  80 MISG      30.20S
MOUNT WERNER   NOT AVBL
STEAMBOAT SPGS CLOUDY    43  38  84 CALM      30.21R
WALDEN         MOSUNNY   45  36  70 S13       30.21S
$$

COZ006>008-011-221700-
...WEST CENTRAL VALLEYS...

CITY           SKY/WX    TMP DP  RH WIND       PRES   REMARKS
GRAND JUNCTION SUNNY     54  47  77 S3        30.15R
MONTROSE       MOSUNNY   50  41  71 CALM      30.20S
EAGLE          MOSUNNY   46  43  87 CALM      30.25S
RIFLE          MOSUNNY   49  45  86 CALM      30.20R
DELTA          SUNNY     55  47  74 CALM      30.18S
NUCLA          SUNNY     54  39  58 E3        30.23R
$$

COZ017>023-064>068-221700-
...SOUTHWEST COLORADO...

CITY           SKY/WX    TMP DP  RH WIND       PRES   REMARKS
DURANGO        SUNNY     50  43  77 CALM      30.25R
CORTEZ         SUNNY     54  42  64 CALM      30.21R
PAGOSA SPRINGS SUNNY     50  42  74 S3        30.29R
TELLURIDE      LGT RAIN  45  36  68 CALM      30.34R
WOLF CREEK PAS PTSUNNY   32  32 100 SW9         N/A  WCI  24
$$

COZ009-010-012-014-032>034-037-058>063-221700-
...CENTRAL COLORADO...

CITY           SKY/WX    TMP DP  RH WIND       PRES   REMARKS
ASPEN          PTSUNNY   42  38  85 S3        30.24R
BUENA VISTA    MOSUNNY   47  37  68 CALM      30.26S
COPPER MTN     PTSUNNY   37  28  70 SW8       30.39R
BERTHOUD PASS  CLOUDY    28  25  86 MISG      30.38R
COTTONWOOD PAS MOSUNNY   45  37  76 SE6       30.32R
GUNNISON       CLOUDY    43  37  81 N5        30.31S
KREMMLING      PTSUNNY   43  37  81 E5          N/A
LEADVILLE      MOSUNNY   33  32  96 CALM      30.30S
MONARCH PASS   FOG       32  30  93 MISG      30.48R VSB<1/4
SALIDA         MOSUNNY   49  40  71 N5        30.32S
SUNLIGHT       MOSUNNY   36  36 100 CALM      30.36R FOG
WILKERSON PASS NOT AVBL
$$

COZ069>075-221700-
...SAN LUIS VALLEY/SANGRE DE CRISTO MOUNTAINS...

CITY           SKY/WX    TMP DP  RH WIND       PRES   REMARKS
ALAMOSA        SUNNY     49  37  63 NW5       30.26S
LA VETA PASS   NOT AVBL
SAGUACHE       MOSUNNY   50  34  53 NW10      30.28F
$$

COZ035-036-038>040-221700-
...NORTHERN COLORADO FRONT RANGE...

CITY           SKY/WX    TMP DP  RH WIND       PRES   REMARKS
DENVER INTL AP MOSUNNY   60  42  51 SE9       30.10S
DMNS CITY PARK   N/A     60  42  50 S7        30.10S
AURORA         PTSUNNY   60  41  49 S8        30.12R
FRONT RANGE AP MOSUNNY   61  45  55 SE9       30.12S
ERIE MUNI ARPT MOSUNNY   63  40  43 CALM      30.10R
BOULDER MUN AP CLOUDY    57  41  54 N6        30.10R
CENTENNIAL     PTSUNNY   59  42  53 SE8       30.12S
BROOMFIELD     PTSUNNY   59  41  51 S9        30.11R
FORT COLLINS   PTSUNNY   55  43  62 E7        30.12R
LONGMONT       CLOUDY    57  46  65 SW6       30.12R
$$

COZ041-046-047-076>085-087-088-221700-
...PIKES PEAK/PALMER DIVIDE AND SOUTHERN FOOTHILLS...

CITY           SKY/WX    TMP DP  RH WIND       PRES   REMARKS
COLO. SPRINGS  PTSUNNY   60  39  45 S6        30.17R
A. F. ACADEMY  MOSUNNY   60  36  40 S9        30.17R
ELLICOTT       MOSUNNY   62  35  36 E6        30.15R
FALCON         MOSUNNY   60  35  38 SW5       30.19R
FORT CARSON    MOSUNNY   59  40  50 S8        30.15R
LIMON          SUNNY     60  40  47 N9        30.13R
MONUMENT HILL  MOSUNNY   57  34  41 SW7       30.17S
TRINIDAD       SUNNY     61  41  47 NW7       30.16R
$$

COZ042>045-048>051-090-091-221700-
...NORTHEAST COLORADO...

CITY           SKY/WX    TMP DP  RH WIND       PRES   REMARKS
GREELEY ARPT   PTSUNNY   57  43  58 SE3       30.11S
AKRON          LGT RAIN  60  40  47 N17G26    30.09R
BURLINGTON     CLOUDY    61  45  55 N12       30.07R
WRAY           CLOUDY    64  48  56 N6        30.06R
STERLING       SUNNY     63  46  55 N8        30.07R
HOLYOKE        CLOUDY    59  50  72 W6        30.06R
FORT MORGAN    SUNNY     64  37  37 N13       30.10R
$$

COZ086-089-092>099-221700-
...SOUTHEAST COLORADO...

CITY           SKY/WX    TMP DP  RH WIND       PRES   REMARKS
PUEBLO         SUNNY     61  41  47 CALM      30.12R
LA JUNTA       SUNNY     66  44  45 N6        30.09R
LAMAR          PTSUNNY   64  49  57 W8        30.04R
SPRINGFIELD      N/A     65  48  54 NW12      30.07R
$$



USA.gov is the U.S. government's official web portal to all federal, state and local government web resources and services.